Regional Weather Roundup
Issued by NWS New Orleans/Baton Rouge, LA

Home | Current Version | Previous Version | Graphics & Text | Print | Product List | Glossary On
Versions: 1 2 3 4 5 6 7 8 9 10 11 12 13 14 15 16 17 18 19 20 21 22 23 24 25 26 27 28 29 30 31 32 33 34 35 36 37 38 39 40 41 42 43 44 45 46 47 48 49 50
472
ASUS44 KLIX 010007
RWRLIX
NEW ORLEANS REGIONAL WEATHER ROUNDUP
NATIONAL WEATHER SERVICE NEW ORLEANS LA
700 PM CDT TUE MAR 31 2015

NOTE: "FAIR" INDICATES FEW OR NO CLOUDS BELOW 12,000 FEET WITH NO
      SIGNIFICANT WEATHER AND/OR OBSTRUCTIONS TO VISIBILITY.
      SKY/WX - SKY CONDITION AND SIGNIFICANT WEATHER.
      TMP - AIR TEMPERATURE.     DP    - DEWPOINT TEMPERATURE.
      RH  - RELATIVE HUMIDITY.   PRES  - PRESSURE.
      HI  - HEAT INDEX.          WCI   - WIND CHILL INDEX.

*  THESE STATIONS ARE NOT NWS OR FAA STATIONS AND ARE NOT UNDER
   NWS QUALITY CONTROL.

LAZ038-040-048-061>063-065>067-069-010100-
SOUTHEAST LOUISIANA

CITY           SKY/WX    TMP DP  RH WIND       PRES   REMARKS
N.O. AUDUBON     N/A     76  67  74 MISG        N/A
6HR MIN TEMP:  75; 6HR MAX TEMP:  87;

N.O. INTL ARPT MOCLDY    76  59  55 SW14      30.02R
6HR MIN TEMP:  76; 6HR MAX TEMP:  82;

N.O. LAKEFRONT PTCLDY    78  60  53 SW17      30.02R
6HR MIN TEMP:  77; 6HR MAX TEMP:  82; 6HR PCP: TRACE;

SLIDELL        PTCLDY    77  60  55 SW7       30.00S
6HR MIN TEMP:  77; 6HR MAX TEMP:  82;

BATON ROUGE    CLEAR     75  59  57 SW15      30.00S
6HR MIN TEMP:  75; 6HR MAX TEMP:  83;

BOOTHVILLE     PTCLDY    75  68  78 SW13      30.05R
6HR MIN TEMP:  75; 6HR MAX TEMP:  78;

BELLE CHASSE   PTCLDY    74  62  66 SW9       30.02R
6HR MIN TEMP:  74; 6HR MAX TEMP:  81;

BOGALUSA*        N/A     80  57  45 SW10G18   30.00S
6HR MIN TEMP:  80; 6HR MAX TEMP:  84;

GALLIANO*      CLEAR     76  62  62 SW12G22   30.04S
6HR MIN TEMP:  76; 6HR MAX TEMP:  82;

NEW ROADS*       N/A     76  56  50 SW7       30.00S
6HR MIN TEMP:  76; 6HR MAX TEMP:  81;

GONZALES*        N/A     75  59  58 SW7       30.02R
6HR MIN TEMP:  75; 6HR MAX TEMP:  82;

HAMMOND*       CLEAR     79  57  47 SW9G16    30.02R
HOUMA*         PTCLDY    73  63  68 SW10      30.03F
PORT FOURCHON* PTCLDY    75  66  73 SW9G17    30.08S

$$

MSZ070-080>082-010100-
SOUTHERN MISSISSIPPI

CITY           SKY/WX    TMP DP  RH WIND       PRES   REMARKS
MCCOMB         PTCLDY    77  58  51 SW8       29.99R
6HR MIN TEMP:  76; 6HR MAX TEMP:  81;

GULFPORT       PTCLDY    76  63  64 SW7       30.00R
6HR MIN TEMP:  76; 6HR MAX TEMP:  81;

BILOXI         CLEAR     75  65  72 W15       30.00S
6HR MIN TEMP:  75; 6HR MAX TEMP:  78;

PASCAGOULA     CLEAR     73  65  75 SW9       30.01S
6HR MIN TEMP:  73; 6HR MAX TEMP:  81;

STENNIS ARPT*  PTCLDY    75  54  46 MISG      30.00S

$$

COASTAL OBSERVATIONS
LAKE AND NEARSHORE STATIONS

STATION/POSITION TIME  TEMP    WIND        PRES    WAVE
                       AIR SEA DIR/SP/G            HT/PER
                 (UTC) (F)     (DEG/KT/KT) (MB)    (FT/S)
PASCAGOULA       2300   74     190/  9/ 11 1015.9
WAVELAND YACHT   2300   77 70  210/  8/ 13 1015.8
GRAND ISLE       2300   76 72  250/ 11/ 17 1017.1
SOUTHWEST PASS   2300   73 56  200/  4/  5 1018.1
NEW CANAL        2300   79     250/ 10/ 14 1016.6
SHELL BEACH      2300   76 72  220/ 19/ 22 1016.3

OFFSHORE STATIONS

STATION/POSITION TIME  TEMP    WIND        PRES    WAVE
                       AIR SEA DIR/SP/G            HT/PER
                 (UTC) (F)     (DEG/KT/KT) (MB)    (FT/S)
64 S DAUPHIN ISL 2350   73 72  240/ 10/ 10 1017.9    2/ 8

$$




USA.gov is the U.S. government's official web portal to all federal, state and local government web resources and services.